Regional Weather Roundup
Issued by NWS

Home | Current Version | Previous Version | Graphics & Text | Print | Product List | Glossary On
Versions: 1 2 3 4 5 6 7 8 9 10 11 12 13 14 15 16 17 18 19 20 21 22 23 24 25 26 27 28 29 30 31 32 33 34 35 36 37 38 39 40 41 42 43 44 45 46 47 48
000
ASUS45 KCYS 291510
RWRWY

WYOMING REGIONAL WEATHER ROUNDUP
NATIONAL WEATHER SERVICE CHEYENNE WY
800 AM MST THU JAN 29 2015

NOTE:  "FAIR" INDICATES FEW OR NO CLOUDS BELOW 12,000 FEET
WITH NO SIGNIFICANT WEATHER AND/OR OBSTRUCTIONS TO VISIBILITY.

WYZ001-291600-
YELLOWSTONE NATIONAL PARK

CITY           SKY/WX    TMP DP  RH WIND       PRES   REMARKS
LK YELLOWSTONE   N/A     16  13  88 CALM      30.45S
W YELLOWSTONE  NOT AVBL

$$
WYZ002>013-054>058-071-098>099-291600-
NORTHERN WYOMING

CITY           SKY/WX    TMP DP  RH WIND       PRES   REMARKS
JACKSON        MOCLDY    19  19 100 N10       30.45S WCI   8
CODY           FAIR      30  25  80 SW9       30.40S WCI  22
GREYBULL       FOG       26  25  96 CALM      30.46R VSB<1/4
WORLAND        MOCLDY    24  23  96 CALM      30.44S
SHERIDAN       FAIR      27  20  75 CALM      30.43S
BUFFALO        FAIR      28  21  75 S8        30.43R WCI  20
GILLETTE       FAIR      29  20  69 VRB5      30.45R WCI  24
HULETT           N/A    N/A N/A N/A MISG        N/A
NEWCASTLE      FAIR      23  19  86 NW6       30.47R WCI  16

$$
WYZ014>020-022>026-101>103-291600-
CENTRAL WYOMING

CITY           SKY/WX    TMP DP  RH WIND       PRES   REMARKS
BIG PINEY      CLOUDY    17  14  88 CALM      30.45R
PINEDALE       PTSUNNY   12  10  92 CALM      30.44R
DUBOIS         FAIR      18  12  79 NW8       30.42S WCI   7
LANDER         FAIR      28  23  81 NW7       30.42R WCI  21
RIVERTON       FAIR      28  25  88 NW8       30.44R WCI  20
CASPER         FAIR      27  23  85 W3        30.45S
DOUGLAS        FAIR      26  22  84 CALM      30.47R

$$
WYZ021-027>030-104>119-291600-
SOUTHERN WYOMING

CITY           SKY/WX    TMP DP  RH WIND       PRES   REMARKS
EVANSTON       FOG       25  23  92 NE7       30.39S VSB<1/4 WCI  17
FORT BRIDGER   PTSUNNY   24  24 100 SW3       30.44R FOG
ROCK SPRINGS   FAIR      28  27  96 E5        30.42R WCI  23
DIXON          FAIR      31  29  93 E6        30.43S WCI  25
RAWLINS        CLOUDY    28  25  88 CALM      30.43S
SARATOGA       CLOUDY    30  28  93 W3        30.44R
LARAMIE        CLOUDY    22  21  96 CALM      30.44R
CHEYENNE       FAIR      30  22  72 NW7       30.45R WCI  23
TORRINGTON     FAIR      29  22  75 W5        30.47R WCI  24
PINE BLUFFS    FAIR      30  21  69 NW9       30.47R WCI  22

$$



USA.gov is the U.S. government's official web portal to all federal, state and local government web resources and services.